Wind_Speed
18 19 22 23 24 24 26 26 25 26 25 25 22 22 18 20 19 4 3 4 6 7 7 8 7 4 4 3 3 2 2 2 1 2 8 12 13 9 8 4 0 8 7 6 17
19 20 22 24 25 26 26 26 26 27 26 22 19 20 17 20 8 3 3 8 6 7 8 9 5 6 3 2 3 2 1 2 1 3 5 8 11 8 7 6 9 10 12 9 13
20 22 24 25 27 27 27 27 26 28 23 20 18 17 16 12 1 1 3 8 5 7 5 4 6 2 3 2 3 3 2 2 3 5 2 3 13 14 12 6 12 20 1 7 7
20 24 26 27 28 28 29 27 27 26 22 21 17 14 14 3 2 1 4 7 7 7 5 4 3 3 3 3 3 3 2 3 6 9 4 5 6 18 19 10 13 13 9 10 10
22 25 27 29 29 31 29 29 26 27 25 20 13 9 3 2 1 1 6 8 7 5 3 3 3 3 1 1 2 3 2 1 8 15 17 18 16 21 20 15 17 19 18 18 17
23 26 30 32 32 31 32 27 27 29 21 13 6 4 1 2 0 3 6 7 5 4 2 3 2 1 2 1 2 3 5 3 8 9 11 24 20 8 15 13 18 21 21 20 22
24 26 30 32 33 33 29 27 29 13 10 1 2 1 2 2 3 2 6 5 4 4 1 3 5 1 1 2 2 2 8 11 7 1 5 7 22 15 10 12 18 19 18 20 22
24 28 30 34 34 33 25 28 14 7 4 3 2 2 4 2 2 5 7 6 8 7 4 3 6 4 1 2 3 3 5 4 7 2 6 3 7 10 9 12 17 17 16 19 20
24 28 32 34 35 26 25 18 6 5 5 4 2 2 1 2 1 2 8 4 3 1 1 4 1 3 2 2 5 3 6 8 5 11 1 3 10 7 10 11 16 15 13 16 16
24 28 31 33 35 21 24 4 5 5 4 2 3 3 0 1 2 3 3 6 1 1 3 2 3 1 1 2 3 2 6 6 6 8 18 18 14 10 10 12 14 13 12 14 17
24 29 33 33 32 19 23 3 5 2 4 1 3 4 3 6 4 5 3 5 1 3 1 2 2 2 1 2 3 5 10 15 9 4 11 13 13 9 9 11 13 13 14 14 14
25 28 32 32 23 16 16 6 4 4 7 3 6 6 8 2 2 2 7 3 2 2 2 1 4 1 2 6 10 13 17 8 6 8 9 13 11 9 7 7 10 8 9 9 9
24 28 32 34 14 12 7 6 12 3 3 5 3 4 1 6 2 3 6 3 2 2 1 3 3 1 3 5 7 9 6 9 5 8 10 8 8 5 6 8 5 3 8 8 7
24 25 31 35 6 19 3 9 18 10 3 1 2 2 4 2 2 1 5 2 2 1 3 2 2 3 3 1 3 6 4 11 14 8 4 2 4 3 5 8 6 4 7 5 4
23 25 28 27 14 7 5 17 4 3 2 2 3 2 2 3 0 2 1 2 2 1 3 2 3 5 3 3 1 2 5 11 11 7 4 3 3 5 1 7 5 4 6 7 7
22 24 29 17 17 7 12 17 4 1 3 3 4 4 4 1 1 0 1 5 1 3 3 2 2 1 0 3 5 10 9 11 3 2 3 3 3 4 1 1 2 2 4 6 8
24 25 29 18 5 11 14 3 0 3 2 3 4 4 3 2 1 2 4 4 1 3 3 2 3 2 1 4 7 4 3 2 3 3 2 1 4 3 1 3 5 5 5 7 7
25 28 20 14 11 12 3 1 0 2 1 1 4 6 4 4 3 3 3 4 6 2 3 2 5 6 7 2 2 5 2 1 1 2 2 1 2 3 4 5 3 3 4 5 8
26 19 8 6 5 1 1 2 3 4 2 2 5 4 1 2 2 3 5 2 5 3 2 3 3 0 7 3 2 4 2 2 4 1 3 0 1 2 5 6 6 5 6 9 10
21 10 7 7 1 2 0 3 3 3 3 1 3 2 5 2 3 2 3 2 2 6 3 2 4 3 2 2 13 3 5 0 1 2 3 3 3 3 8 6 4 6 7 8 8
8 4 6 4 3 2 2 4 4 5 5 4 3 4 3 4 3 3 2 2 3 2 5 2 1 2 2 6 4 3 2 5 2 2 3 4 1 5 7 5 5 7 6 6 8
3 3 3 2 2 1 3 3 4 5 1 2 2 3 3 4 4 3 3 3 6 1 3 2 2 3 4 2 1 7 4 2 3 1 1 2 2 4 4 6 6 6 7 9 10
3 3 2 2 2 1 4 3 3 3 2 2 2 1 2 4 5 3 3 2 6 4 2 2 3 4 5 4 3 5 5 2 2 1 2 4 3 3 2 2 4 6 8 9 9
2 2 1 2 1 2 4 3 4 3 3 1 3 3 4 4 5 5 5 5 4 5 7 5 3 3 3 4 2 5 9 4 2 2 2 3 2 3 1 2 3 5 7 7 9
1 1 2 0 1 2 1 2 3 3 2 2 3 3 5 5 6 5 4 3 6 3 4 3 4 6 10 11 13 11 12 13 8 3 4 4 1 1 2 5 5 6 8 10 12
2 1 0 2 2 2 3 2 2 3 4 2 6 4 3 5 3 7 7 2 2 4 3 3 5 6 6 8 13 16 10 7 7 5 6 2 1 2 4 6 9 11 9 11 10
2 1 2 0 1 2 3 3 3 5 3 4 6 8 11 5 9 11 11 10 5 3 3 2 6 3 4 3 1 4 7 7 2 2 3 5 5 6 7 10 12 10 11 11 7
Wind_Direction
354 352 348 348 347 343 339 336 340 335 332 331 330 333 339 332 327 327 241 154 144 143 157 160 138 120 125 115 112 161 248 300 348 335 348 349 8 17 322 281 342 53 34 129 139
352 349 346 346 344 341 336 333 340 331 329 327 329 332 337 330 335 264 175 164 159 159 156 173 150 144 112 120 136 203 305 297 298 282 330 56 34 339 343 345 64 49 59 122 134
353 348 344 343 343 339 336 333 338 326 327 323 324 331 332 332 259 95 164 177 177 157 157 127 103 119 125 185 158 148 263 7 5 323 324 90 60 33 3 22 336 305 321 124 113
355 348 342 341 341 338 334 334 333 324 321 315 315 323 326 329 102 85 124 153 159 150 135 106 89 119 136 172 153 244 298 247 352 7 88 75 83 52 43 27 27 59 105 90 62
349 343 341 340 341 339 334 333 332 320 315 307 301 313 351 231 255 117 147 151 162 158 134 131 89 144 169 185 188 203 298 12 67 90 91 82 68 63 46 54 66 74 70 67 56
345 343 340 342 343 338 332 336 330 319 314 298 277 299 261 125 350 138 160 159 176 171 126 150 121 153 102 302 283 156 23 56 90 115 95 71 53 64 41 68 69 68 65 60 61
343 342 340 341 341 337 335 336 325 330 338 277 167 142 251 140 159 128 181 197 209 196 190 199 147 102 144 205 139 148 120 116 35 333 157 335 41 43 44 73 76 72 69 64 59
341 339 341 344 341 338 337 333 332 351 26 84 115 165 247 147 297 253 210 244 244 233 240 202 168 111 203 41 103 182 157 163 35 352 26 141 77 34 41 81 76 72 69 71 62
342 339 342 343 343 339 338 336 5 24 40 71 53 249 109 330 259 256 209 210 215 176 161 133 89 58 183 235 155 55 114 99 104 15 218 112 125 51 35 66 69 70 74 79 76
339 341 341 344 345 347 348 350 319 3 355 348 295 266 320 80 325 305 246 222 303 76 125 42 56 346 52 352 63 69 120 78 85 47 97 99 104 92 69 67 68 66 59 63 74
340 342 341 347 347 358 7 360 3 51 24 302 299 291 302 308 291 211 199 134 119 64 106 16 176 118 314 104 84 107 118 114 118 138 69 94 99 83 80 78 69 57 54 51 46
340 341 342 345 349 5 34 65 85 288 319 280 250 272 262 252 303 214 165 179 150 115 139 168 89 281 114 132 106 126 123 112 99 95 106 121 102 86 82 88 85 89 87 80 73
336 341 341 345 347 357 41 77 346 169 246 292 220 252 170 158 224 204 175 157 122 107 144 130 79 176 148 141 133 161 169 174 150 118 94 128 117 123 73 103 113 174 91 78 73
333 341 341 343 360 337 346 336 337 181 300 238 211 199 143 218 259 230 195 140 120 74 167 65 346 105 76 123 174 171 126 161 145 170 157 282 159 128 111 126 97 99 120 104 109
330 335 336 338 306 298 314 327 342 198 114 195 138 117 121 200 268 92 140 120 145 73 236 58 58 39 57 7 160 86 74 149 136 101 152 61 272 111 189 154 101 143 134 121 95
325 329 329 330 307 290 317 325 195 16 172 144 107 134 148 347 44 92 106 52 60 102 38 35 332 59 149 82 79 137 92 93 107 138 169 33 295 138 176 338 281 306 104 86 71
319 322 318 306 274 300 315 282 115 242 268 139 129 143 152 163 86 62 70 57 66 149 51 39 50 351 357 138 119 179 160 166 171 205 47 345 227 29 287 313 287 324 33 41 35
319 321 317 301 301 292 286 133 291 268 218 15 115 115 174 154 45 59 104 83 52 26 106 113 153 5 353 41 88 47 2 32 268 270 95 154 234 76 342 338 284 77 79 50 36
324 325 318 339 332 309 286 117 231 228 34 16 112 125 172 145 127 93 50 67 32 338 92 133 90 252 39 60 325 137 79 54 103 45 233 34 195 207 27 30 64 67 52 34 29
329 323 299 322 249 17 165 234 258 250 352 259 144 168 173 152 111 91 49 354 29 15 287 116 127 20 55 186 56 43 123 224 66 283 297 186 256 272 345 356 33 40 49 50 29
325 320 353 64 344 30 249 242 288 274 224 204 182 125 127 131 97 85 40 48 10 25 64 95 335 93 270 32 23 100 93 67 84 331 302 302 138 352 325 2 66 72 52 22 8
326 276 349 251 245 101 226 195 310 281 265 268 130 110 132 118 86 100 114 351 340 310 61 42 83 80 95 59 9 61 51 37 299 211 74 318 94 6 61 62 54 42 15 6 359
297 277 347 138 252 257 273 320 260 292 315 0 124 78 73 122 108 108 110 57 31 60 77 149 39 131 148 154 86 48 22 58 104 285 112 302 74 109 91 73 27 5 4 356 356
288 288 307 58 16 274 25 298 296 262 255 277 103 113 111 68 34 134 123 53 45 76 61 93 69 31 163 70 56 59 16 9 354 360 109 34 128 166 209 294 343 359 356 360 2
331 284 349 203 240 278 326 297 290 314 335 352 77 84 125 108 104 104 108 120 59 53 52 67 84 90 80 88 87 80 55 49 67 30 18 97 77 202 261 294 316 335 356 2 358
258 267 217 277 285 257 170 235 270 334 336 356 109 80 89 134 178 156 140 113 111 69 65 20 125 122 66 102 95 75 53 54 53 55 88 82 45 11 312 307 324 345 355 355 352
186 258 272 343 254 202 209 261 296 335 66 35 119 102 66 56 96 87 83 75 79 101 103 70 145 151 131 188 299 69 26 43 48 40 2 4 18 350 345 342 340 348 354 344 340
Height
827 824 820 816 813 809 806 802 797 794 791 788 785 782 777 774 774 771 771 770 769 770 771 773 774 775 776 777 780 782 791 793 788 789 779 765 764 755 754 752 751 759 764 766 766
826 824 819 816 811 808 804 799 794 792 788 786 782 779 775 772 771 770 768 768 769 769 771 772 772 773 775 778 780 782 793 786 778 776 775 776 773 771 763 756 758 761 770 771 768
825 822 818 814 808 805 801 796 791 789 785 783 780 777 774 772 771 767 767 767 769 768 770 770 771 771 776 777 780 785 785 780 775 774 776 777 780 778 773 769 771 771 769 771 773
823 821 817 812 807 803 798 792 788 785 782 780 778 776 773 773 783 767 767 767 769 768 769 770 770 774 779 781 779 785 778 778 774 776 775 782 782 788 786 788 775 768 774 776 779
821 820 815 813 805 798 794 788 784 782 778 776 775 774 773 773 768 766 767 767 769 769 768 768 770 773 778 778 780 783 778 778 780 780 780 779 788 792 792 787 783 779 781 782 784
821 817 812 805 799 795 791 784 781 777 772 771 772 773 774 773 764 765 767 768 768 768 768 767 768 769 775 778 780 780 781 782 782 782 781 783 792 788 797 791 788 785 787 791 791
820 817 813 807 800 794 786 780 778 773 770 769 771 772 774 766 764 765 767 767 767 767 767 766 766 768 772 778 776 780 786 783 786 785 781 781 799 807 800 794 793 791 795 794 794
820 815 811 802 795 788 783 779 775 772 770 770 771 773 769 762 763 764 765 766 766 766 767 766 765 766 771 773 780 784 786 791 791 785 783 779 822 808 802 798 799 799 800 798 800
819 815 806 801 795 788 782 776 774 772 771 772 773 773 766 761 762 762 763 764 764 765 765 766 765 772 772 778 781 784 794 793 794 787 785 783 816 811 807 803 804 805 804 802 803
818 813 808 802 793 785 779 774 772 771 772 773 774 776 761 763 761 761 761 762 763 763 765 767 770 774 778 773 794 792 796 801 801 803 791 802 815 812 811 808 809 809 809 809 806
815 810 805 796 791 787 778 774 776 776 774 773 774 771 763 762 760 760 760 762 762 765 777 775 777 781 778 781 782 786 790 801 804 799 805 814 817 821 817 814 816 816 818 821 823
813 810 804 798 792 789 784 785 794 798 788 772 772 769 765 763 766 759 760 765 767 778 778 780 783 775 776 781 783 787 793 805 804 801 802 814 823 820 818 821 819 821 824 824 826
814 809 801 796 790 790 789 791 793 793 794 773 766 766 761 763 764 761 759 762 769 778 780 778 776 772 773 781 783 790 790 800 796 805 805 809 822 824 821 819 821 820 822 827 828
813 809 803 796 795 793 791 792 791 792 793 776 767 760 760 760 766 756 756 760 769 777 778 776 771 774 776 781 780 790 781 787 797 801 813 813 821 824 824 824 824 824 824 827 829
812 807 805 804 801 797 793 791 790 792 804 771 765 756 758 764 762 760 756 758 772 774 774 782 776 776 782 783 777 789 784 788 798 803 808 815 815 821 819 820 822 822 824 825 825
810 809 804 801 798 792 791 790 791 798 805 774 760 765 768 765 763 758 759 758 762 771 774 777 770 772 774 778 777 782 790 799 803 806 821 826 823 820 819 821 818 815 817 821 821
810 807 804 798 795 792 791 790 800 802 771 777 771 766 771 774 770 767 774 778 782 789 792 781 780 773 772 777 779 784 793 812 821 820 825 826 822 820 818 814 813 813 814 815 816
807 802 797 793 792 791 791 790 809 782 775 762 766 770 778 772 776 775 780 785 780 784 791 794 805 784 776 779 784 793 795 808 835 829 822 823 829 821 814 813 811 813 817 818 818
805 798 794 793 791 790 790 804 790 782 767 770 768 779 781 775 775 779 788 789 786 786 790 796 801 780 781 778 781 794 800 804 822 833 824 831 825 817 814 816 817 818 819 820 820
806 800 793 792 791 790 793 800 785 772 765 767 778 775 787 784 782 783 790 788 788 786 781 794 803 789 783 780 784 788 799 808 809 832 835 832 833 823 826 824 823 823 825 825 825
807 800 794 790 792 791 793 791 781 766 767 770 773 778 781 782 782 789 797 791 788 785 781 789 794 797 786 798 803 797 802 815 817 824 826 831 828 834 833 833 832 830 829 829 826
810 802 794 794 798 805 797 789 781 770 761 763 763 769 775 780 787 791 796 795 787 784 792 801 802 808 807 801 800 799 812 814 815 829 834 828 833 840 838 835 833 831 830 828 829
809 803 793 792 798 796 791 783 777 771 767 765 766 765 771 782 792 790 792 789 785 788 795 798 819 817 813 807 802 812 817 822 825 824 831 828 836 841 840 838 836 835 833 833 833
810 800 792 793 798 795 789 786 782 767 767 765 766 766 776 785 783 792 792 790 788 794 802 799 821 820 817 822 819 824 825 822 820 819 831 834 842 844 842 840 838 837 837 835 834
811 802 805 796 794 795 793 792 785 777 765 763 766 767 771 788 787 794 791 792 790 798 799 801 822 822 823 822 824 831 830 826 830 837 832 842 842 842 840 839 838 839 837 836 835
808 806 805 799 799 796 796 787 783 774 775 767 768 773 772 778 777 791 789 792 795 798 805 812 827 822 832 827 825 834 834 833 837 838 841 841 841 840 840 839 837 837 839 838 836
809 809 807 800 796 795 789 784 777 776 772 769 768 772 778 783 778 784 789 797 798 799 810 815 820 824 837 833 832 836 843 840 841 840 840 840 843 841 841 842 840 842 841 839 838